EN

Hourly Weather Oboz

Today, 16 May, Sunday

Time Temperature Precipitation Wind Pressure Humidity
00:00 +10°C° 0 mm 2 mps 743 mmHg 94%
01:00 +9°C° 0 mm 2 mps 743 mmHg 94%
02:00 +9°C° 0 mm 2 mps 744 mmHg 94%
03:00 +10°C° 0 mm 1 mps 744 mmHg 94%
04:00 +10°C° 0 mm 1 mps 744 mmHg 94%
05:00 +10°C° 0 mm 1 mps 744 mmHg 94%
06:00 +11°C° 0 mm 1 mps 744 mmHg 88%
07:00 +13°C° 0 mm 1 mps 744 mmHg 82%
08:00 +15°C° 0 mm 1 mps 745 mmHg 76%
09:00 +17°C° 0 mm 2 mps 745 mmHg 69%
10:00 +18°C° 0 mm 2 mps 745 mmHg 63%
11:00 +20°C° 0 mm 2 mps 745 mmHg 56%
12:00 +20°C° 0 mm 2 mps 744 mmHg 54%
13:00 +21°C° 0 mm 2 mps 744 mmHg 51%
14:00 +23°C° 0 mm 2 mps 744 mmHg 48%
15:00 +22°C° 0 mm 3 mps 743 mmHg 51%
16:00 +22°C° 0 mm 3 mps 743 mmHg 53%
17:00 +22°C° 0 mm 3 mps 743 mmHg 56%
18:00 +20°C° 0.1 mm 3 mps 743 mmHg 64%
19:00 +18°C° 0.1 mm 3 mps 743 mmHg 73%
20:00 +16°C° 0.1 mm 3 mps 743 mmHg 82%
21:00 +16°C° 0.3 mm 3 mps 742 mmHg 85%
22:00 +14°C° 0.3 mm 3 mps 742 mmHg 89%
23:00 +14°C° 0.3 mm 2 mps 742 mmHg 92%

Tomorrow, 17 May, Monday

Time Temperature Precipitation Wind Pressure Humidity
00:00 +14°C° 0.2 mm 2 mps 742 mmHg 93%
01:00 +13°C° 0.2 mm 3 mps 742 mmHg 94%
02:00 +12°C° 0.2 mm 3 mps 742 mmHg 95%
03:00 +12°C° 0.4 mm 3 mps 742 mmHg 95%
04:00 +12°C° 0.4 mm 3 mps 742 mmHg 95%
05:00 +12°C° 0.4 mm 3 mps 742 mmHg 95%
06:00 +15°C° 0.2 mm 2 mps 742 mmHg 92%
07:00 +16°C° 0.2 mm 2 mps 742 mmHg 88%
08:00 +17°C° 0.2 mm 2 mps 742 mmHg 85%
09:00 +18°C° 0.5 mm 2 mps 742 mmHg 80%
10:00 +19°C° 0.5 mm 2 mps 742 mmHg 76%
11:00 +20°C° 0.5 mm 2 mps 741 mmHg 71%
12:00 +19°C° 0.7 mm 2 mps 741 mmHg 73%
13:00 +19°C° 0.7 mm 2 mps 741 mmHg 75%
14:00 +19°C° 0.7 mm 3 mps 741 mmHg 78%
15:00 +18°C° 0.2 mm 2 mps 740 mmHg 80%
16:00 +17°C° 0.2 mm 2 mps 740 mmHg 82%
17:00 +16°C° 0.2 mm 2 mps 740 mmHg 84%
18:00 +16°C° 0 mm 2 mps 739 mmHg 86%
19:00 +15°C° 0 mm 1 mps 739 mmHg 89%
20:00 +14°C° 0 mm 1 mps 739 mmHg 91%
21:00 +13°C° 0 mm 1 mps 739 mmHg 92%
22:00 +13°C° 0 mm 1 mps 738 mmHg 93%
23:00 +12°C° 0 mm 2 mps 738 mmHg 94%

Day after tomorrow, 18 May, Tuesday

Time Temperature Precipitation Wind Pressure Humidity
00:00 +12°C° 0 mm 1 mps 738 mmHg 94%
01:00 +12°C° 0 mm 1 mps 737 mmHg 94%
02:00 +12°C° 0 mm 1 mps 737 mmHg 94%
03:00 +12°C° 0 mm 1 mps 736 mmHg 93%
04:00 +12°C° 0 mm 1 mps 736 mmHg 93%
05:00 +12°C° 0 mm 1 mps 736 mmHg 92%
06:00 +13°C° 0.1 mm 1 mps 736 mmHg 89%
07:00 +14°C° 0.1 mm 1 mps 736 mmHg 85%
08:00 +16°C° 0.1 mm 1 mps 736 mmHg 81%
09:00 +18°C° 0.2 mm 1 mps 736 mmHg 77%
10:00 +19°C° 0.2 mm 1 mps 736 mmHg 73%
11:00 +21°C° 0.2 mm 1 mps 735 mmHg 68%
12:00 +19°C° 1.4 mm 2 mps 735 mmHg 74%
13:00 +18°C° 1.4 mm 2 mps 735 mmHg 80%
14:00 +17°C° 1.4 mm 2 mps 735 mmHg 86%
15:00 +16°C° 2.8 mm 3 mps 735 mmHg 89%
16:00 +14°C° 2.8 mm 4 mps 735 mmHg 93%
17:00 +12°C° 2.8 mm 4 mps 735 mmHg 96%
18:00 +12°C° 1.1 mm 5 mps 735 mmHg 96%
19:00 +10°C° 1.1 mm 5 mps 735 mmHg 96%
20:00 +9°C° 1.1 mm 5 mps 736 mmHg 95%
21:00 +9°C° 0.5 mm 5 mps 736 mmHg 95%
22:00 +10°C° 0.5 mm 4 mps 736 mmHg 96%
23:00 +10°C° 0.5 mm 4 mps 736 mmHg 96%

19 May, Wednesday

Time Temperature Precipitation Wind Pressure Humidity
00:00 +10°C° 0.4 mm 4 mps 735 mmHg 96%
01:00 +8°C° 0.4 mm 5 mps 735 mmHg 96%
02:00 +8°C° 0.4 mm 5 mps 735 mmHg 96%
03:00 +8°C° 0.3 mm 5 mps 735 mmHg 96%
04:00 +8°C° 0.3 mm 6 mps 734 mmHg 95%
05:00 +8°C° 0.3 mm 6 mps 734 mmHg 95%
06:00 +8°C° 0.5 mm 6 mps 734 mmHg 95%
07:00 +8°C° 0.5 mm 5 mps 733 mmHg 95%
08:00 +8°C° 0.5 mm 5 mps 733 mmHg 95%
09:00 +8°C° 0.5 mm 6 mps 734 mmHg 94%
10:00 +8°C° 0.5 mm 7 mps 735 mmHg 94%
11:00 +7°C° 0.5 mm 8 mps 736 mmHg 93%
12:00 +7°C° 1.4 mm 8 mps 737 mmHg 93%
13:00 +7°C° 1.4 mm 8 mps 738 mmHg 93%
14:00 +7°C° 1.4 mm 8 mps 739 mmHg 93%
15:00 +8°C° 0.9 mm 7 mps 740 mmHg 93%
16:00 +9°C° 0.9 mm 7 mps 740 mmHg 92%
17:00 +9°C° 0.9 mm 6 mps 741 mmHg 92%
18:00 +9°C° 0 mm 6 mps 742 mmHg 92%
19:00 +9°C° 0 mm 5 mps 742 mmHg 92%
20:00 +9°C° 0 mm 5 mps 743 mmHg 92%
21:00 +8°C° 0 mm 5 mps 743 mmHg 93%
22:00 +8°C° 0 mm 4 mps 744 mmHg 94%
23:00 +7°C° 0 mm 4 mps 744 mmHg 94%

20 May, Thursday

Time Temperature Precipitation Wind Pressure Humidity
00:00 +6°C° 0 mm 4 mps 745 mmHg 94%
01:00 +6°C° 0 mm 4 mps 745 mmHg 94%
02:00 +5°C° 0 mm 4 mps 745 mmHg 94%
03:00 +5°C° 0 mm 3 mps 746 mmHg 94%
04:00 +4°C° 0 mm 3 mps 746 mmHg 93%
05:00 +4°C° 0 mm 3 mps 746 mmHg 92%
06:00 +7°C° 0 mm 3 mps 747 mmHg 87%
07:00 +9°C° 0 mm 3 mps 747 mmHg 82%
08:00 +11°C° 0 mm 3 mps 747 mmHg 77%
09:00 +12°C° 0.1 mm 4 mps 747 mmHg 70%
10:00 +14°C° 0.1 mm 4 mps 747 mmHg 64%
11:00 +15°C° 0.1 mm 4 mps 748 mmHg 58%
12:00 +15°C° 0.1 mm 4 mps 747 mmHg 56%
13:00 +16°C° 0.1 mm 5 mps 747 mmHg 54%
14:00 +16°C° 0.1 mm 5 mps 747 mmHg 52%
15:00 +16°C° 0.1 mm 5 mps 747 mmHg 58%
16:00 +15°C° 0.1 mm 4 mps 747 mmHg 63%
17:00 +14°C° 0.1 mm 4 mps 747 mmHg 68%
18:00 +13°C° 0.1 mm 4 mps 748 mmHg 75%
19:00 +11°C° 0.1 mm 3 mps 748 mmHg 81%
20:00 +10°C° 0.1 mm 3 mps 748 mmHg 88%
21:00 +9°C° 0 mm 2 mps 748 mmHg 90%
22:00 +8°C° 0 mm 2 mps 748 mmHg 92%
23:00 +8°C° 0 mm 2 mps 748 mmHg 94%

21 May, Friday

Time Temperature Precipitation Wind Pressure Humidity
00:00 +7°C° 0 mm 2 mps 748 mmHg 94%
01:00 +7°C° 0 mm 2 mps 748 mmHg 94%
02:00 +7°C° 0 mm 2 mps 748 mmHg 94%
03:00 +7°C° 0 mm 2 mps 748 mmHg 94%
04:00 +7°C° 0 mm 2 mps 748 mmHg 94%
05:00 +7°C° 0 mm 2 mps 748 mmHg 94%
06:00 +8°C° 0 mm 3 mps 748 mmHg 88%
07:00 +10°C° 0 mm 3 mps 748 mmHg 82%
08:00 +12°C° 0 mm 4 mps 748 mmHg 76%
09:00 +13°C° 0.1 mm 4 mps 747 mmHg 73%
10:00 +14°C° 0.1 mm 5 mps 747 mmHg 71%
11:00 +15°C° 0.1 mm 5 mps 746 mmHg 68%
12:00 +16°C° 0.2 mm 6 mps 746 mmHg 65%
13:00 +17°C° 0.2 mm 6 mps 746 mmHg 61%
14:00 +19°C° 0.2 mm 6 mps 745 mmHg 58%
15:00 +17°C° 0.4 mm 7 mps 745 mmHg 63%
16:00 +17°C° 0.4 mm 7 mps 745 mmHg 69%
17:00 +16°C° 0.4 mm 7 mps 745 mmHg 74%
18:00 +15°C° 0.3 mm 6 mps 745 mmHg 75%
19:00 +14°C° 0.3 mm 6 mps 745 mmHg 77%
20:00 +13°C° 0.3 mm 6 mps 746 mmHg 79%
21:00 +12°C° 0 mm 5 mps 746 mmHg 82%
22:00 +11°C° 0 mm 4 mps 746 mmHg 84%
23:00 +11°C° 0 mm 3 mps 746 mmHg 87%
Show more

We Need Your Consent

Meteoprog and our Service Providers may store and access personal data such as cookies, device identifiers or other similar technologies on your device and process such data to personalise content and ads, as well as provide social media features and to analyse the traffic.

  • Store and/or access information on your device

    Cookies, device identifiers or other information can be stored or accessed on your device for the purposes indicated above.

  • Personalised ads and content, ad and content measurement, audience insights, and products development

    Ads and content can be personalised based on a profile. More data can be added to better personalise ads and content. Ad and content performance can be measured. Insights about the audience who saw the ads and content can be derived. Such data can be used to develop or improve user’s experience, systems and software.

By clicking ‘I Agree’ you will allow the use of indicated cookies, device identifiers, web beacons or other similar technologies. Your settings can be changed in the browser on your device.

For certain purposes, legitimate interests may be relied on, rather than consent. You can read more about this in our Privacy and Cookie Policy.